Terminal Aerodrome Forecast
Issued by NWS Aberdeen, SD

Home | Current Version | Previous Version | Text Only | Print | Product List | Glossary On
Versions: 1 2 3 4 5 6 7 8 9 10 11 12 13 14 15 16 17 18 19 20 21 22 23 24 25 26 27 28 29 30 31 32 33 34 35 36 37 38 39 40 41
000
FTUS43 KABR 131307 AAA
TAFABR
TAF AMD
KABR 131307Z 1313/1412 33023G31KT P6SM BKN024
     FM132300 34018G25KT P6SM BKN025
     FM140100 34012KT P6SM BKN030
     FM140400 35007KT P6SM BKN030=

USA.gov is the U.S. government's official web portal to all federal, state and local government web resources and services.